Tracking 29932 objects as of 4-Dec-2024
HD Live streaming from Space Station
objects crossing your sky now

STARLINK-32237

Track STARLINK-32237 now!
10-day predictions
STARLINK-32237 is classified as:


NORAD ID: 60443
Int'l Code: 2024-144U
Perigee: 480.9 km
Apogee: 483.8 km
Inclination: 53.2 °
Period: 94.1 minutes
Semi major axis: 6853 km
RCS: Unknown
Launch date: August 12, 2024
Source: United States (US)
Launch site: AIR FORCE EASTERN TEST RANGE (AFETR)
Your satellite tracking list
Your tracking list is empty




NASA's NSSDC Master Catalog

Two Line Element Set (TLE):
1 60443U 24144U   24338.83267865 -.00000492  00000-0 -44562-5 0  9990
2 60443  53.1640 197.5010 0002180 100.7396 259.3850 15.30201599 18587
Source of the keplerian elements: AFSPC